Location: Invercargill
(46.4000°S, 168.3500°E)
Time: 09:59:06
(UTC+13:00)

Cosmos 1763 Rocket - Pass Details

Date: 24 January 2019
Orbit: 733 x 780 km, 74.0° (Epoch: 14 February)

Event Time Altitude Azimuth Distance (km) Brightness Sun altitude
Rises 22:21:03 0° 204° (SSW) 3,276 8.0 -8.1°
Reaches altitude 10° 22:23:28 10° 204° (SSW) 2,335 7.2 -8.4°
Maximum altitude 22:28:46 78° 289° (WNW) 788 3.6 -9.1°
Drops below altitude 10° 22:33:56 10° 14° (NNE) 2,274 5.5 -9.8°
Enters shadow 22:34:29 - 15° (NNE) 2,488 5.6 -9.8°
